• In Russia
  • List of Countries
  • For 7 days
  • Water Temperature
  • Satellite Maps
  • Weather Map
  • Weather Widgets
  • user-avatar
    Login

    Hourly Weather Krugloe

    Today, 26 September, Wednesday

    Time Temperature Precipitation Wind Pressure Humidity
    00:00 +5°C° 0 mm 4 mps 742 mmHg 77%
    01:00 +5°C° 0 mm 4 mps 742 mmHg 80%
    02:00 +4°C° 0 mm 4 mps 743 mmHg 83%
    03:00 +4°C° 0 mm 2 mps 743 mmHg 86%
    04:00 +3°C° 0 mm 3 mps 743 mmHg 87%
    05:00 +3°C° 0 mm 3 mps 744 mmHg 88%
    06:00 +1°C° 0 mm 4 mps 744 mmHg 89%
    07:00 +3°C° 0 mm 4 mps 745 mmHg 85%
    08:00 +4°C° 0 mm 4 mps 746 mmHg 81%
    09:00 +4°C° 0 mm 4 mps 746 mmHg 77%
    10:00 +5°C° 0 mm 4 mps 747 mmHg 70%
    11:00 +7°C° 0 mm 5 mps 747 mmHg 64%
    12:00 +8°C° 0 mm 5 mps 747 mmHg 57%
    13:00 +8°C° 0 mm 5 mps 747 mmHg 55%
    14:00 +9°C° 0 mm 5 mps 747 mmHg 52%
    15:00 +9°C° 0 mm 5 mps 747 mmHg 50%
    16:00 +8°C° 0 mm 4 mps 747 mmHg 56%
    17:00 +7°C° 0 mm 4 mps 747 mmHg 61%
    18:00 +7°C° 0 mm 3 mps 746 mmHg 66%
    19:00 +6°C° 0 mm 4 mps 746 mmHg 67%
    20:00 +6°C° 0 mm 4 mps 746 mmHg 68%
    21:00 +5°C° 0 mm 5 mps 746 mmHg 70%
    22:00 +5°C° 0 mm 6 mps 745 mmHg 68%
    23:00 +5°C° 0 mm 6 mps 744 mmHg 66%

    Tomorrow, 27 September, Thursday

    Time Temperature Precipitation Wind Pressure Humidity
    00:00 +5°C° 0 mm 7 mps 743 mmHg 64%
    01:00 +5°C° 0.1 mm 8 mps 742 mmHg 64%
    02:00 +5°C° 0.1 mm 8 mps 742 mmHg 64%
    03:00 +5°C° 0.1 mm 9 mps 741 mmHg 64%
    04:00 +3°C° 0.8 mm 10 mps 739 mmHg 68%
    05:00 +3°C° 0.8 mm 10 mps 738 mmHg 72%
    06:00 +3°C° 0.8 mm 11 mps 737 mmHg 76%
    07:00 +3°C° 0.6 mm 11 mps 737 mmHg 78%
    08:00 +3°C° 0.6 mm 11 mps 736 mmHg 81%
    09:00 +4°C° 0.6 mm 11 mps 735 mmHg 84%
    10:00 +5°C° 0.4 mm 10 mps 735 mmHg 84%
    11:00 +6°C° 0.4 mm 10 mps 735 mmHg 85%
    12:00 +6°C° 0.4 mm 9 mps 735 mmHg 85%
    13:00 +7°C° 0.1 mm 9 mps 735 mmHg 80%
    14:00 +8°C° 0.1 mm 9 mps 735 mmHg 75%
    15:00 +10°C° 0.1 mm 9 mps 736 mmHg 70%
    16:00 +9°C° 0.1 mm 8 mps 736 mmHg 70%
    17:00 +9°C° 0.1 mm 7 mps 736 mmHg 70%
    18:00 +9°C° 0.1 mm 6 mps 737 mmHg 70%
    19:00 +8°C° 0 mm 5 mps 737 mmHg 73%
    20:00 +7°C° 0 mm 5 mps 737 mmHg 75%
    21:00 +7°C° 0 mm 5 mps 738 mmHg 77%
    22:00 +6°C° 0 mm 5 mps 738 mmHg 79%
    23:00 +6°C° 0 mm 5 mps 738 mmHg 81%

    Day after tomorrow, 28 September, Friday

    Time Temperature Precipitation Wind Pressure Humidity
    00:00 +6°C° 0 mm 5 mps 739 mmHg 82%
    01:00 +6°C° 0 mm 5 mps 739 mmHg 83%
    02:00 +5°C° 0 mm 5 mps 739 mmHg 84%
    03:00 +5°C° 0 mm 5 mps 739 mmHg 85%
    04:00 +5°C° 0 mm 5 mps 738 mmHg 85%
    05:00 +4°C° 0 mm 6 mps 738 mmHg 86%
    06:00 +4°C° 0 mm 6 mps 737 mmHg 87%
    07:00 +5°C° 0 mm 8 mps 737 mmHg 83%
    08:00 +7°C° 0 mm 9 mps 736 mmHg 80%
    09:00 +8°C° 0 mm 10 mps 736 mmHg 77%
    10:00 +9°C° 0 mm 10 mps 735 mmHg 75%
    11:00 +12°C° 0 mm 11 mps 735 mmHg 73%
    12:00 +13°C° 0 mm 11 mps 734 mmHg 71%
    13:00 +13°C° 0.1 mm 10 mps 734 mmHg 73%
    14:00 +13°C° 0.1 mm 10 mps 734 mmHg 76%
    15:00 +13°C° 0.1 mm 10 mps 733 mmHg 78%
    16:00 +13°C° 0.5 mm 9 mps 733 mmHg 80%
    17:00 +13°C° 0.5 mm 9 mps 733 mmHg 81%
    18:00 +12°C° 0.5 mm 9 mps 733 mmHg 83%
    19:00 +11°C° 0.2 mm 8 mps 734 mmHg 82%
    20:00 +9°C° 0.2 mm 7 mps 735 mmHg 81%
    21:00 +8°C° 0.2 mm 6 mps 736 mmHg 80%
    22:00 +7°C° 0 mm 5 mps 737 mmHg 82%
    23:00 +5°C° 0 mm 4 mps 738 mmHg 85%

    29 September, Saturday

    Time Temperature Precipitation Wind Pressure Humidity
    00:00 +4°C° 0 mm 3 mps 739 mmHg 87%
    01:00 +3°C° 0 mm 3 mps 739 mmHg 88%
    02:00 +3°C° 0 mm 3 mps 740 mmHg 89%
    03:00 +3°C° 0 mm 2 mps 741 mmHg 90%
    04:00 +3°C° 0 mm 2 mps 741 mmHg 90%
    05:00 +3°C° 0 mm 2 mps 742 mmHg 90%
    06:00 +2°C° 0 mm 2 mps 742 mmHg 90%
    07:00 +4°C° 0 mm 2 mps 742 mmHg 84%
    08:00 +5°C° 0 mm 2 mps 743 mmHg 78%
    09:00 +6°C° 0 mm 2 mps 743 mmHg 72%
    10:00 +7°C° 0 mm 2 mps 743 mmHg 66%
    11:00 +8°C° 0 mm 2 mps 744 mmHg 61%
    12:00 +9°C° 0 mm 2 mps 744 mmHg 55%
    13:00 +10°C° 0 mm 2 mps 744 mmHg 55%
    14:00 +10°C° 0 mm 2 mps 744 mmHg 54%
    15:00 +10°C° 0 mm 2 mps 744 mmHg 54%
    16:00 +9°C° 0 mm 2 mps 744 mmHg 58%
    17:00 +9°C° 0 mm 2 mps 744 mmHg 62%
    18:00 +9°C° 0 mm 1 mps 745 mmHg 67%
    19:00 +8°C° 0 mm 1 mps 745 mmHg 69%
    20:00 +6°C° 0 mm 2 mps 746 mmHg 72%
    21:00 +6°C° 0 mm 2 mps 746 mmHg 74%
    22:00 +5°C° 0 mm 2 mps 746 mmHg 75%
    23:00 +4°C° 0 mm 2 mps 747 mmHg 75%

    30 September, Sunday

    Time Temperature Precipitation Wind Pressure Humidity
    00:00 +4°C° 0 mm 2 mps 747 mmHg 76%
    01:00 +3°C° 0 mm 2 mps 747 mmHg 76%
    02:00 +3°C° 0 mm 2 mps 748 mmHg 75%
    03:00 +4°C° 0 mm 1 mps 748 mmHg 75%
    04:00 +3°C° 0 mm 1 mps 748 mmHg 76%
    05:00 +3°C° 0 mm 1 mps 748 mmHg 77%
    06:00 +3°C° 0 mm 1 mps 748 mmHg 78%
    07:00 +4°C° 0 mm 1 mps 749 mmHg 74%
    08:00 +5°C° 0 mm 1 mps 749 mmHg 70%
    09:00 +6°C° 0 mm 1 mps 749 mmHg 65%
    10:00 +7°C° 0 mm 2 mps 749 mmHg 61%
    11:00 +8°C° 0 mm 2 mps 749 mmHg 56%
    12:00 +9°C° 0 mm 3 mps 749 mmHg 51%
    13:00 +9°C° 0 mm 3 mps 749 mmHg 49%
    14:00 +10°C° 0 mm 3 mps 749 mmHg 48%
    15:00 +10°C° 0 mm 4 mps 748 mmHg 46%
    16:00 +9°C° 0 mm 3 mps 748 mmHg 51%
    17:00 +8°C° 0 mm 3 mps 748 mmHg 55%
    18:00 +7°C° 0 mm 2 mps 748 mmHg 59%
    19:00 +6°C° 0 mm 2 mps 748 mmHg 61%
    20:00 +5°C° 0 mm 3 mps 748 mmHg 62%
    21:00 +4°C° 0 mm 3 mps 748 mmHg 63%
    22:00 +4°C° 0 mm 3 mps 748 mmHg 64%
    23:00 +4°C° 0 mm 3 mps 748 mmHg 66%

    1 October, Monday

    Time Temperature Precipitation Wind Pressure Humidity
    00:00 +4°C° 0 mm 3 mps 748 mmHg 67%
    01:00 +3°C° 0 mm 3 mps 748 mmHg 70%
    02:00 +3°C° 0 mm 3 mps 748 mmHg 74%
    03:00 +3°C° 0 mm 3 mps 748 mmHg 77%
    04:00 +3°C° 0 mm 3 mps 747 mmHg 78%
    05:00 +2°C° 0 mm 3 mps 747 mmHg 80%
    06:00 +2°C° 0 mm 3 mps 747 mmHg 82%
    07:00 +3°C° 0 mm 3 mps 747 mmHg 78%
    08:00 +4°C° 0 mm 4 mps 747 mmHg 74%
    09:00 +5°C° 0 mm 4 mps 747 mmHg 70%
    10:00 +7°C° 0 mm 4 mps 747 mmHg 65%
    11:00 +8°C° 0 mm 4 mps 747 mmHg 60%
    12:00 +11°C° 0 mm 4 mps 747 mmHg 54%
    13:00 +11°C° 0 mm 4 mps 747 mmHg 53%
    14:00 +12°C° 0 mm 4 mps 747 mmHg 52%
    15:00 +12°C° 0 mm 4 mps 746 mmHg 50%
    16:00 +11°C° 0 mm 3 mps 746 mmHg 55%
    17:00 +10°C° 0 mm 3 mps 746 mmHg 61%
    18:00 +9°C° 0 mm 2 mps 746 mmHg 66%
    19:00 +8°C° 0 mm 2 mps 746 mmHg 67%
    20:00 +7°C° 0 mm 2 mps 746 mmHg 69%
    21:00 +7°C° 0 mm 2 mps 746 mmHg 71%
    22:00 +7°C° 0 mm 2 mps 746 mmHg 72%
    23:00 +6°C° 0 mm 2 mps 746 mmHg 73%
    Show more